Погода в Бурукане

Погода в Бурукане : погода сейчас, прогноз погоды и архив. Всё, что Вы хотите узнать о погоде в Бурукане!

Поиск расширенной информации на нашем сайте:

Другие новости

Новости СМИ2

Главная страница сайта

Новости сайта

02.10.2013

Напоминаем, что на нашем новом сайте вы можете получить высокодетализированные прогнозы погоды по пунктам России, СНГ и мира (включающие важные для авиации метеовеличины, такие как направление и скорость ветра, видимость, явления погоды, количество и форма облачности, нижняя и верхняя граница облачности), а также ознакомиться с разнообразными материалами по авиационной метеорологии и подборкой полезных ссылок на эту тему.

Сайт Метеоцентр.Азия посвящён разработке технологий оптимизации авиаметеорологического обслуживания, включая проектирование и перспективное создание нескольких автоматизированных авиаметеорологических систем:
- система выпуска высокодетальных прогностических карт явлений погоды для нижнего воздушного пространства по России и ближнему зарубежью;
- система верификации прогнозов TAF (выпускаемых синоптиками официальных АМСГ РФ и ближнего зарубежья) и AUTOTAF (выпускаемых сайтом Метеоцентр.Азия) - выявление ошибок, онлайн-сопоставление с фактической погодой METAR, автоматическое внесение коррективов в прогнозы при резком отклонении фактической погоды от прогноза, подсчёт оправдываемости прогнозов по элементам и в целом;
- система обработки, анализа и отображения авиаметеорологической информации для применения провайдерами метеорологической информации.

Рекомендуем: шарж минск

Погода в Бурукане - сегодня

Время (UTC), дата Ветер
(°,м/с) 
Видим.   Явления Облачность Т
(°С)
Тd
(°С)
f(%) Тe
(°С)
Pmin
(гПа)
dP
(гПа)
Po
(мм)
O2
(г/м3)
Тmin Tmax R s Состояние
почвы
15 24.04.17 030 (СВ) 4000 м  слаб. снег  10/10 600 м 
[Ns]
-1.5 -2.8 91 -1  1024.1  0.1  754  306           
18 24.04.17 030 (СВ) 4000 м  слаб. снег  10/10 600 м 
[Ns]
-2.1 -3.1 93 -2  1023.7  -0.4  753  306           
21 24.04.17 360 (С) 20000 м  в посл. час снег  9/8 600 м средняя 
[Sc|Ac trans]
-1.7 -3.4 88 -1  1023.1  -0.6  753  306  -2.5    0.7  равномерный
мокрый или
старый снег
100% 
00 25.04.17 350 (С) 20000 м  {снег}  10/5 600 м средняя 
[Sc|Ac und]
+0.4 -3.3 76 -1  1022.3  -0.6  752  303           
03 25.04.17 350 (С) 20000 м    10/3 600 м средняя, верхняя 
[Sc|Ac As|Cs]
+4.3 -2.6 61 +3  1019.7  -2.3  751  298           
06 25.04.17 010 (С) 20000 м    10/1 600 м средняя 
[Sc|Ac As]
+5.2 -2.8 56 +4  1017.8  -1.8  749  297           
09 25.04.17 020 (С) 20000 м    10/0 верхняя 
[Cs]
+3.3 -2.7 65 +2  1016.9  -1  748  298    +5.3       
12 25.04.17 350 (С) 20000 м    10/0 средняя 
[As op]
+0.9 -2 81 1016.9  0.1  748  301           
15 25.04.17 360 (С) 2000 м  снег  10/10 600 м 
[Ns]
-0.1 -0.8 95 -1  1015.2  -1.7  747  301           
18 25.04.17 010 (С) н/о    н/о 
-0 -0.5 96 -1  1013.3  -1.8  746  300           
21 25.04.17 010 (С) 4000 м  слаб. снег  10/10 600 м 
[Ns]
-0.3 -0.5 99 -2  1012  -1.3  745  300  -0.3    равномерный
мокрый или
старый снег
100% 
00 26.04.17 010 (С) 4000 м  слаб. снег  10/10 600 м 
[Ns]
+0.6 +0.2 97 +1  1011.4  -1.3  744  299  -0.3         
03 26.04.17 010 (С) 10 км  слаб. дождь{снег}  10/10 600 м 
[Ns]
+2.4 +1.4 93 +2  1011.1  -0.2  744  297           
06 26.04.17 010 (С) 10 км  слаб. дождь{снег}  10/10 600 м 
[Ns]
+3.5 +2.5 93 +4  1009.8  -1.1  743  295           
09 26.04.17 тихо ()   20000 м  {дождь}  10/10 600 м 
[Sc]
+3.5 +1.6 87 +4  1008.9  -0.9  743  295    +3.9     
12 26.04.17 тихо ()   20000 м  {дождь}  9/9 600 м кучево-дожд., средняя 
[Cb cap|Ac As]
+0.5 +0.4 99 +1  1008.9  -0.2  742  299           
15 26.04.17 тихо ()   20000 м    10/3 600 м средняя 
[Sc|Ac und]
-0.5 -0.5 100 -1  1007.7  -1.3  741  299           
18 26.04.17 тихо ()   20000 м    10/3 600 м средняя, верхняя 
[Sc|Ac As|Ci fib]
-0.7 -0.7 100 -1  1006.3  -1.4  740  299           
21 26.04.17 тихо ()   20000 м    8/3 600 м средняя 
[Sc|Ac trans]
+0.3 +0.2 99 1005.3  -0.9  740  298  -0.8        влажная 
00 27.04.17 360 (С) 20000 м    8/3 600 м верхняя 
[Cu med, cong|Ci fib]
+6.2 -0 64 +6  1003.4  -1.4  739  291           
03 27.04.17 060 (СВ) 20000 м    10/3 600 м верхняя 
[Cu med, cong|Ci fib]
+8.6 -4.4 39 +7  1001.9  -1.3  738  289           
06 27.04.17 100 (В) 20000 м    10/4 600 м кучево-дожд., верхняя 
[Cb cap|Ci sp]
+9.6 -2.9 41 +11  1000.7  -1.2  737  287           
09 27.04.17 060 (СВ) 20000 м    8/3 600 м верхняя 
[Sc|Ci fib]
+8.6 -6.2 34 +9  1000.1  -0.6  736  288    +10.3       
12 27.04.17 320 (СЗ) 20000 м    3/3 600 м 
[Sc diur, vesp]
-1.4 -5.2 75 -1  1001.4  0.6  737  299           
15 27.04.17 тихо ()   20000 м    3/0 верхняя 
[Ci fib]
-4.2 -5.7 89 -4  1001.1  -0.5  736  302           
Время (UTC), дата Ветер
(°,м/с) 
Видим.   Явления Облачность Т
(°С)
Тd
(°С)
f(%) Тe
(°С)
Pmin
(гПа)
dP
(гПа)
Po
(мм)
O2
(г/м3)
Тmin Tmax R s Состояние
почвы

Для получения пояснительной информации подведите курсор к названию столбца.

ПОГОДА в Бурукане - архив

Всё, что Вы хотите узнать о погоде в Бурукане - удобно и подробно!

Выберите нужную дату (начиная с 1 января 2015* года) и нажмите кнопку "Найти".
Будут отображены архивные сводки погоды по пункту Бурукан, начиная с указанной даты.


Отображать данные в формате CSV (для использования в таблицах Excel)


Внимание! Наш архив погоды предназначен исключительно для личного некоммерческого использования в познавательных целях. Если Вам необходимы официальные справки о состоянии погоды (для производственных, юридических, коммерческих и т.п. целей), обращайтесь в органы Росгидромета.

*Примечание: данная дата относится к архиву по метеостанциям СССР (Россия, СНГ, Балтия).
Архив по метеостанциям Зарубежной Европы и Азии (кроме Китая) хранится 10 дней, по другим регионам земного шара (Китай, Африка, Америка, Австралия, Океания) - 1 день.

Бурукан - район местоположения метеостанции


Название, широта, долгота, высота метеостанции:
Бурукан 53.1°ш. 136°д. 153 м над ур. моря [Российская Федерация]

Дополнительная информация

В oтличие oт бoльшинства пoгoдных сайтoв мы публикуем пoдрoбную метеoинфoрмацию в детальнoм прoфессиoнальнoм фoрмате.

Характеристики температуры и влажнoсти вoздуха измеряются на высoте 2 м в тени вдали oт зданий и деревьев.
Скoрoсть ветра измеряется на высoте 10 м (на урoвне рoста челoвека скoрoсть ветра ниже в 1.5-2 раза). Если метеoстанция нахoдится в гoрoде или в лесу, тo скoрoсть ветра занижена на 2-4 м/с пo сравнению с oткрытым местoм. Скoрoсть ветра над акватoриями крупных рек и oзёр, а также на вершинах хoлмoв на 2-5 м/с выше, чем в oбычных услoвиях.
Атмoсфернoе давление в разных тoчках местнoсти мoжет значительнo oтличаться oт давления на метеoстанции, в зависимoсти oт услoвий рельефа (при пoдъёме на 10 м давление пoнижается примернo на 1 мм рт.ст.).